Location: Complexul Astronomic Baia Mare
(47.6577°N, 23.5639°E)
Time: 06:55:19
(UTC+03:00)

ISS - Pass Details

Date: 22 May 2017
Orbit: 402 x 408 km, 51.6° (Epoch: 29 May)

Event Time Altitude Azimuth Distance (km) Brightness Sun altitude
Rises 04:42:16 0° 293° (WNW) 2,330 -0.2 -8.5°
Reaches altitude 10° 04:44:21 10° 293° (WNW) 1,466 -1.2 -8.3°
Maximum altitude 04:47:38 83° 207° (SSW) 412 -3.9 -7.9°
Drops below altitude 10° 04:50:54 10° 118° (ESE) 1,456 -0.7 -7.5°
Sets 04:52:58 0° 118° (ESE) 2,312 0.3 -7.2°
